Location: Zagreb
(45.8000°N, 16.0000°E)
Time: 10:17:54
(UTC+01:00)

Courier 1B - Visible Passes

Search period start: 11 February 2026 00:00
Search period end: 21 February 2026 00:00
Orbit: 962 x 1208 km, 28.3° (Epoch: 10 February)

Date Brightness Start Highest point End Pass type
(mag) Time Alt. Az. Time Alt. Az. Time Alt. Az.
15 Feb 10.1 20:47:27 10° SSW 20:47:36 10° SSW 20:47:36 10° SSW visible
16 Feb 9.7 19:54:34 10° SSW 19:57:13 14° S 19:57:13 14° S visible
17 Feb 9.7 19:02:20 10° S 19:04:43 12° SSE 19:06:49 10° SE visible
17 Feb 9.9 20:52:28 10° SW 20:53:42 13° SSW 20:53:42 13° SSW visible
18 Feb 9.4 19:59:11 10° SSW 20:03:16 18° S 20:03:16 18° S visible
19 Feb 9.5 19:06:10 10° SSW 19:10:12 16° SSE 19:12:49 13° SE visible
19 Feb 9.8 20:57:57 10° SW 20:59:42 15° SSW 20:59:42 15° SSW visible
20 Feb 9.7 18:13:35 10° S 18:16:35 13° SSE 18:19:39 10° SE visible
20 Feb 9.3 20:04:27 10° SW 20:09:14 20° S 20:09:14 20° S visible
